TimeEDT,TemperatureF,Dew PointF,Humidity,Sea Level PressureIn,VisibilityMPH,Wind Direction,Wind SpeedMPH,Gust SpeedMPH,PrecipitationIn,Events,Conditions,WindDirDegrees,DateUTC
12:15 AM,50.2,42.8,76,30.06,10.0,NW,3.5,-,N/A,,Overcast,310,2013-03-31 04:15:00
12:35 AM,50.0,41.9,74,30.06,10.0,WNW,3.5,-,N/A,,Overcast,300,2013-03-31 04:35:00
12:55 AM,50.2,43.2,77,30.06,10.0,Calm,Calm,-,N/A,,Overcast,0,2013-03-31 04:55:00
1:15 AM,51.8,41.7,68,30.06,10.0,SW,4.6,-,N/A,,Overcast,230,2013-03-31 05:15:00
1:35 AM,52.9,41.7,66,30.05,10.0,Calm,Calm,-,0.01,Rain,Light Rain,0,2013-03-31 05:35:00
1:55 AM,51.8,43.3,73,30.05,7.0,Calm,Calm,-,0.02,Rain,Rain,0,2013-03-31 05:55:00
2:15 AM,49.6,46.2,88,30.03,7.0,Calm,Calm,-,0.02,Rain,Rain,0,2013-03-31 06:15:00
2:35 AM,49.5,46.6,90,30.03,7.0,Calm,Calm,-,0.04,Rain,Rain,0,2013-03-31 06:35:00
2:55 AM,48.6,46.4,92,30.02,4.0,Calm,Calm,-,0.07,Rain,Rain,0,2013-03-31 06:55:00
3:15 AM,48.2,46.2,93,30.00,10.0,Calm,Calm,-,0.01,Rain,Light Rain,0,2013-03-31 07:15:00
3:35 AM,48.0,46.8,95,29.98,7.0,East,4.6,-,0.02,Rain,Light Rain,80,2013-03-31 07:35:00
3:55 AM,48.2,46.8,95,29.98,10.0,Calm,Calm,-,0.03,,Drizzle,0,2013-03-31 07:55:00
4:15 AM,47.8,46.8,96,29.96,7.0,Calm,Calm,-,N/A,Rain,Rain,0,2013-03-31 08:15:00
4:35 AM,47.7,46.9,97,29.96,5.0,Calm,Calm,-,0.01,Rain,Rain,0,2013-03-31 08:35:00
4:55 AM,47.3,46.9,99,29.96,4.0,Calm,Calm,-,0.01,,Drizzle,0,2013-03-31 08:55:00
5:15 AM,47.5,47.3,99,29.95,5.0,Calm,Calm,-,0.02,Rain,Light Rain,0,2013-03-31 09:15:00
5:35 AM,47.8,47.3,98,29.94,5.0,Calm,Calm,-,0.02,Rain,Light Rain,0,2013-03-31 09:35:00
5:55 AM,47.5,47.3,99,29.95,2.0,Calm,Calm,-,0.02,,Overcast,0,2013-03-31 09:55:00
6:15 AM,47.5,47.3,99,29.94,1.8,Calm,Calm,-,N/A,Rain,Light Rain,0,2013-03-31 10:15:00
6:35 AM,47.5,47.5,100,29.94,3.0,Calm,Calm,-,0.01,Rain,Light Rain,0,2013-03-31 10:35:00
6:55 AM,47.7,47.5,99,29.94,1.2,Calm,Calm,-,0.01,,Drizzle,0,2013-03-31 10:55:00
7:15 AM,47.7,47.5,99,29.94,2.0,Calm,Calm,-,N/A,,Overcast,0,2013-03-31 11:15:00
7:35 AM,47.7,47.5,99,29.94,2.5,Calm,Calm,-,N/A,,Overcast,0,2013-03-31 11:35:00
7:55 AM,47.8,47.7,99,29.93,1.8,Calm,Calm,-,N/A,,Overcast,0,2013-03-31 11:55:00
8:15 AM,48.2,47.7,98,29.93,2.5,Calm,Calm,-,N/A,,Overcast,0,2013-03-31 12:15:00
8:35 AM,48.2,47.7,98,29.93,2.5,Calm,Calm,-,N/A,,Overcast,0,2013-03-31 12:35:00
8:55 AM,48.4,48.0,99,29.93,4.0,Calm,Calm,-,N/A,,Overcast,0,2013-03-31 12:55:00
9:15 AM,49.1,48.4,97,29.93,4.0,Calm,Calm,-,N/A,,Overcast,0,2013-03-31 13:15:00
9:35 AM,49.1,48.2,97,29.94,3.0,Calm,Calm,-,N/A,,Overcast,0,2013-03-31 13:35:00
9:55 AM,49.3,48.6,97,29.94,3.0,Calm,Calm,-,N/A,,Overcast,0,2013-03-31 13:55:00
10:15 AM,49.6,49.1,98,29.94,1.8,Calm,Calm,-,N/A,,Overcast,0,2013-03-31 14:15:00
10:35 AM,50.2,49.1,96,29.93,2.5,Calm,Calm,-,N/A,,Overcast,0,2013-03-31 14:35:00
10:55 AM,51.1,50.2,97,29.92,3.0,SSW,4.6,-,N/A,,Overcast,200,2013-03-31 14:55:00
11:15 AM,53.2,51.6,94,29.93,5.0,SSW,6.9,-,N/A,,Overcast,210,2013-03-31 15:15:00
11:35 AM,55.8,52.7,89,29.92,10.0,SW,5.8,-,N/A,,Overcast,220,2013-03-31 15:35:00
11:55 AM,58.1,53.2,84,29.91,10.0,SSW,8.1,-,N/A,,Overcast,200,2013-03-31 15:55:00
12:15 PM,58.6,53.2,82,29.91,10.0,SSW,4.6,-,N/A,,Mostly Cloudy,210,2013-03-31 16:15:00
12:35 PM,61.7,54.9,78,29.89,10.0,South,5.8,18.4,N/A,,Scattered Clouds,190,2013-03-31 16:35:00
12:55 PM,63.1,54.3,73,29.90,10.0,SSW,9.2,19.6,N/A,,Scattered Clouds,210,2013-03-31 16:55:00
1:15 PM,64.8,53.8,68,29.88,10.0,SSW,12.7,17.3,N/A,,Scattered Clouds,210,2013-03-31 17:15:00
1:35 PM,65.7,53.4,65,29.87,10.0,South,12.7,19.6,N/A,,Mostly Cloudy,190,2013-03-31 17:35:00
1:55 PM,66.2,52.5,61,29.87,10.0,WSW,9.2,17.3,N/A,,Overcast,240,2013-03-31 17:55:00
2:15 PM,67.3,52.3,59,29.85,10.0,SSW,9.2,-,N/A,,Mostly Cloudy,200,2013-03-31 18:15:00
2:35 PM,68.0,52.2,57,29.85,10.0,SW,8.1,-,N/A,,Mostly Cloudy,220,2013-03-31 18:35:00
2:55 PM,68.4,51.4,55,29.85,10.0,SSW,10.4,23.0,N/A,,Overcast,200,2013-03-31 18:55:00
3:15 PM,70.3,52.5,53,29.85,10.0,WSW,5.8,16.1,N/A,,Mostly Cloudy,250,2013-03-31 19:15:00
3:35 PM,66.9,51.1,57,29.84,10.0,SW,9.2,17.3,N/A,Rain,Light Rain,220,2013-03-31 19:35:00
3:55 PM,68.0,51.1,55,29.84,10.0,SW,9.2,17.3,N/A,,Overcast,230,2013-03-31 19:55:00
4:15 PM,68.4,50.7,53,29.83,10.0,SSW,9.2,24.2,N/A,,Overcast,210,2013-03-31 20:15:00
4:35 PM,67.1,50.5,55,29.82,10.0,SSW,12.7,16.1,N/A,,Overcast,210,2013-03-31 20:35:00
4:55 PM,65.3,51.1,60,29.83,10.0,SW,10.4,20.7,N/A,,Overcast,220,2013-03-31 20:55:00
5:15 PM,63.7,52.2,66,29.85,10.0,SW,16.1,26.5,N/A,Rain,Light Rain,230,2013-03-31 21:15:00
5:35 PM,59.7,54.7,83,29.85,7.0,WSW,9.2,18.4,0.01,Rain,Light Rain,250,2013-03-31 21:35:00
5:55 PM,58.6,55.4,89,29.85,10.0,SW,5.8,-,0.02,Rain,Light Rain,220,2013-03-31 21:55:00
6:15 PM,58.6,55.2,88,29.85,10.0,SW,4.6,-,N/A,Rain,Light Rain,230,2013-03-31 22:15:00
6:35 PM,58.3,55.4,90,29.85,10.0,Calm,Calm,-,N/A,,Overcast,0,2013-03-31 22:35:00
6:55 PM,58.3,54.9,88,29.86,10.0,Calm,Calm,-,N/A,,Overcast,0,2013-03-31 22:55:00
7:15 PM,58.3,54.9,88,29.85,10.0,South,3.5,-,N/A,,Overcast,180,2013-03-31 23:15:00
7:35 PM,58.1,54.5,88,29.85,10.0,SSW,3.5,-,N/A,,Mostly Cloudy,200,2013-03-31 23:35:00
7:55 PM,57.7,54.1,88,29.85,10.0,SW,3.5,-,N/A,,Scattered Clouds,230,2013-03-31 23:55:00
8:15 PM,57.4,53.8,88,29.85,10.0,Calm,Calm,-,N/A,,Clear,0,2013-04-01 00:15:00
8:35 PM,57.2,53.8,88,29.86,10.0,Calm,Calm,-,N/A,,Clear,0,2013-04-01 00:35:00
8:55 PM,57.4,53.8,88,29.85,10.0,Calm,Calm,-,N/A,,Mostly Cloudy,0,2013-04-01 00:55:00
9:15 PM,56.5,53.6,90,29.85,10.0,Calm,Calm,-,N/A,,Mostly Cloudy,0,2013-04-01 01:15:00
9:35 PM,56.5,53.8,91,29.85,10.0,Calm,Calm,-,N/A,,Scattered Clouds,0,2013-04-01 01:35:00
9:55 PM,55.8,53.6,92,29.86,10.0,Calm,Calm,-,N/A,,Mostly Cloudy,0,2013-04-01 01:55:00
10:15 PM,55.6,53.8,94,29.86,10.0,SSW,3.5,-,N/A,,Mostly Cloudy,200,2013-04-01 02:15:00
10:35 PM,55.4,53.6,94,29.86,10.0,SSW,3.5,-,N/A,,Overcast,210,2013-04-01 02:35:00
10:55 PM,55.9,53.8,92,29.86,10.0,Calm,Calm,-,N/A,,Overcast,0,2013-04-01 02:55:00
11:15 PM,54.9,53.4,95,29.86,10.0,Calm,Calm,-,N/A,,Overcast,0,2013-04-01 03:15:00
11:35 PM,55.4,53.6,94,29.86,10.0,Calm,Calm,-,N/A,,Overcast,0,2013-04-01 03:35:00
11:55 PM,55.6,53.8,94,29.86,10.0,Calm,Calm,-,N/A,,Overcast,0,2013-04-01 03:55:00